Location: Newark
(1.4667°N, 173.0333°E)
Time: 11:47:45
(UTC+00:00)

Hubble Space Telescope - Pass Details

Date: 22 March 2019
Orbit: 537 x 540 km, 28.5° (Epoch: 24 April)

Event Time Altitude Azimuth Distance (km) Brightness Sun altitude
Exits shadow 17:59:45 11° 274° (W) 1,710 2.6 -8.7°
Maximum altitude 18:03:18 33° 210° (SSW) 901 1.7 -7.8°
Drops below altitude 10° 18:07:02 10° 145° (SE) 1,781 3.9 -6.9°
Sets 18:09:27 0° 135° (SE) 2,672 5.1 -6.3°
